EW8383 Weather Reports


time (UTC)temp
C
wind
direction
speed
KPH
gust
KPH
rain 1hr
cm
rain 24hr
cm
rain mn
cm
humidity
%
barometer
mb
20260831224550 32 103 14.5 0.0 0.00 0.00 0.00 33 1005.7
20260831223049 32 26 9.7 0.0 0.00 0.00 0.00 30 1005.8
20260831221547 33 23 8.0 0.0 0.00 0.00 0.00 30 1006.0
20260831220048 33 21 9.7 0.0 0.00 0.00 0.00 29 1005.9
20260831214545 33 28 12.9 0.0 0.00 0.00 0.00 29 1005.9
20260831213043 33 9 11.3 0.0 0.00 0.00 0.00 28 1006.0
20260831211543 34 310 3.2 0.0 0.00 0.00 0.00 27 1006.3
20260831210040 33 58 3.2 0.0 0.00 0.00 0.00 27 1006.4
20260831204542 33 355 6.4 0.0 0.00 0.00 0.00 27 1006.5
20260831203037 33 84 3.2 0.0 0.00 0.00 0.00 27 1006.8
20260831201535 33 360 8.0 0.0 0.00 0.00 0.00 28 1007.0
20260831200032 33 195 6.4 0.0 0.00 0.00 0.00 29 1007.0
20260831194531 33 22 3.2 0.0 0.00 0.00 0.00 29 1007.1
20260831193038 32 58 6.4 0.0 0.00 0.00 0.00 30 1007.2
20260831191527 32 217 11.3 0.0 0.00 0.00 0.00 30 1007.4
20260831190038 32 236 6.4 0.0 0.00 0.00 0.00 32 1007.5
20260831184522 32 203 9.7 0.0 0.00 0.00 0.00 33 1007.5
20260831183021 31 215 6.4 0.0 0.00 0.00 0.00 33 1007.7
20260831181519 31 250 6.4 0.0 0.00 0.00 0.00 35 1007.9
20260831180018 31 247 9.7 0.0 0.00 0.00 0.00 35 1008.1
20260831174515 30 217 9.7 0.0 0.00 0.00 0.00 36 1008.3
20260831173012 30 268 11.3 0.0 0.00 0.00 0.00 37 1008.6
20260831171510 29 267 8.0 0.0 0.00 0.00 0.00 39 1008.5
20260831170007 29 259 9.7 0.0 0.00 0.00 0.00 40 1008.5
20260831163005 28 248 9.7 0.0 0.00 0.00 0.00 42 1008.5
20260831161604 27 257 11.3 0.0 0.00 0.00 0.00 44 1008.4
20260831160057 27 268 11.3 0.0 0.00 0.00 0.00 48 1008.2
20260831154555 26 211 12.9 0.0 0.00 0.00 0.00 51 1008.4
20260831153102 25 219 12.9 0.0 0.00 0.00 0.00 56 1008.3
20260831151548 25 219 12.9 0.0 0.00 0.00 0.00 56 1008.3
20260831150046 24 262 9.7 0.0 0.00 0.00 0.00 60 1008.5
20260831144539 23 240 11.3 0.0 0.00 0.00 0.00 64 1008.4
20260831143039 22 242 12.9 0.0 0.00 0.00 0.00 66 1008.6
20260831141534 21 253 6.4 0.0 0.00 0.00 0.00 72 1008.9
20260831140035 20 300 3.2 0.0 0.00 0.00 0.00 76 1008.9
20260831134530 18 248 3.2 0.0 0.00 0.00 0.00 79 1008.9
20260831133028 18 217 4.8 0.0 0.00 0.00 0.00 80 1008.8
20260831131527 17 195 1.6 0.0 0.00 0.00 0.00 80 1008.6
20260831130025 18 194 1.6 0.0 0.00 0.00 0.00 80 1008.4
20260831124524 17 193 4.8 0.0 0.00 0.00 0.00 81 1008.1
20260831123023 17 192 3.2 0.0 0.00 0.00 0.00 80 1008.0
20260831121525 17 175 6.4 0.0 0.00 0.00 0.00 80 1007.5
20260831120034 17 163 6.4 0.0 0.00 0.00 0.00 78 1007.4
20260831114520 17 155 4.8 0.0 0.00 0.00 0.00 77 1007.4
20260831113018 18 205 3.2 0.0 0.00 0.00 0.00 75 1007.3
20260831111518 18 205 0.0 0.0 0.00 0.00 0.00 75 1007.1
20260831110015 18 205 1.6 0.0 0.00 0.00 0.00 75 1007.3
20260831104513 19 205 3.2 0.0 0.00 0.00 0.00 75 1006.8
20260831103014 19 205 0.0 0.0 0.00 0.00 0.00 74 1006.9
20260831101509 20 204 0.0 0.0 0.00 0.00 0.00 73 1007.1
20260831100006 20 204 3.2 0.0 0.00 0.00 0.00 71 1007.1
20260831094507 20 205 1.6 0.0 0.00 0.00 0.00 69 1007.1
20260831093152 21 205 6.4 0.0 0.00 0.00 0.00 67 1007.6
20260831091505 21 191 6.4 0.0 0.00 0.00 0.00 65 1007.8
20260831090002 20 196 6.4 0.0 0.00 0.00 0.00 64 1007.9
20260831084651 20 207 4.8 0.0 0.00 0.00 0.00 64 1007.7
20260831083106 21 285 3.2 0.0 0.00 0.00 0.00 63 1007.6
20260831081559 21 283 6.4 0.0 0.00 0.00 0.00 61 1007.7
20260831080120 21 127 6.4 0.0 0.00 0.00 0.00 61 1006.9
20260831074556 21 157 6.4 0.0 0.00 0.00 0.00 63 1007.5
20260831073056 21 206 8.0 0.0 0.00 0.00 0.00 62 1007.8
20260831071605 21 209 11.3 0.0 0.00 0.00 0.00 61 1008.2
20260831070053 21 188 6.4 0.0 0.00 0.00 0.00 62 1007.6
20260831064556 21 236 6.4 0.0 0.00 0.00 0.00 62 1007.5
20260831063106 21 241 4.8 0.0 0.00 0.00 0.00 61 1007.4
20260831061549 21 240 4.8 0.0 0.00 0.00 0.00 61 1007.3
20260831060049 21 221 4.8 0.0 0.00 0.00 0.00 58 1007.6
20260831054544 21 213 4.8 0.0 0.00 0.00 0.00 57 1007.4
20260831053053 21 194 6.4 0.0 0.00 0.00 0.00 57 1007.1
20260831051543 21 232 4.8 0.0 0.00 0.00 0.00 57 1007.1
20260831050039 21 223 6.4 0.0 0.00 0.00 0.00 57 1006.6
20260831044540 22 215 4.8 0.0 0.00 0.00 0.00 55 1006.4
20260831043046 22 146 4.8 0.0 0.00 0.00 0.00 55 1006.5
20260831041548 22 146 4.8 0.0 0.00 0.00 0.00 54 1006.6
20260831040041 23 112 1.6 0.0 0.00 0.00 0.00 49 1006.8
20260831034539 24 112 3.2 0.0 0.00 0.00 0.00 47 1006.7
20260831033046 25 38 1.6 0.0 0.00 0.00 0.00 45 1006.6
20260831030046 26 74 1.6 0.0 0.00 0.00 0.00 43 1006.9
20260831024541 26 96 3.2 0.0 0.00 0.00 0.00 43 1007.0
20260831023035 26 287 1.6 0.0 0.00 0.00 0.00 44 1006.7
20260831021535 26 279 6.4 0.0 0.00 0.00 0.00 41 1006.5
20260831020032 26 317 11.3 0.0 0.00 0.00 0.00 41 1005.8
20260831014535 27 340 16.1 0.0 0.00 0.00 0.00 38 1005.6
20260831013031 28 317 22.5 0.0 0.00 0.00 0.00 34 1005.6
20260831011530 29 258 17.7 0.0 0.00 0.00 0.00 33 1005.2
20260831010031 31 84 6.4 0.0 0.00 0.00 0.00 34 1004.4
20260831004529 31 88 9.7 0.0 0.00 0.00 0.00 33 1004.3
20260831003029 31 100 6.4 0.0 0.00 0.00 0.00 32 1004.3
20260831001528 32 99 6.4 0.0 0.00 0.00 0.00 32 1004.2
20260831000028 32 292 0.0 0.0 0.00 0.00 0.00 30 1004.1
20260830234528 32 292 1.6 0.0 0.00 0.00 0.00 32 1004.4
20260830233027 32 292 1.6 0.0 0.00 0.00 0.00 32 1004.0
20260830231527 32 275 4.8 0.0 0.00 0.00 0.00 32 1003.7
20260830230026 33 277 4.8 0.0 0.00 0.00 0.00 30 1004.0